Regional Weather Roundup
Issued by NWS

Home | Current Version | Previous Version | Graphics & Text | Print | Product List | Glossary On
Versions: 1 2 3 4 5 6 7 8 9 10 11 12 13 14 15 16 17 18 19 20 21 22 23 24 25 26 27 28 29 30 31 32 33 34 35 36 37 38 39 40 41 42 43 44 45 46 47 48 49 50
000
ASUS43 KTOP 292059
RWRKS

WEATHER ROUNDUP FOR KANSAS
NATIONAL WEATHER SERVICE GOODLAND KS
400 PM CDT FRI AUG 29 2014

NOTE:  "FAIR" INDICATES FEW OR NO CLOUDS BELOW 12,000 FEET WITH NO
SIGNIFICANT WEATHER AND/OR OBSTRUCTIONS TO VISIBILITY.

KSZ001>006-013>018-027>032-041>047-292200-
NORTHWEST KANSAS

CITY           SKY/WX    TMP DP  RH WIND       PRES   REMARKS
GOODLAND       SUNNY     84  45  25 N17G23    29.96F
HAYS           MOSUNNY   82  61  47 W7        29.86S
HILL CITY      SUNNY     86  54  33 NW12      29.86F
RUSSELL        SUNNY     85  60  42 W7        29.83F
$$

KSZ061>065-074>080-084>089-292200-
SOUTHWEST KANSAS

CITY           SKY/WX    TMP DP  RH WIND       PRES   REMARKS
DODGE CITY     SUNNY     86  51  29 N14G21    29.90F
ELKHART          N/A     87  46  24 N10         N/A
GARDEN CITY    SUNNY     84  52  33 N12G22    29.92F
GREAT BEND     SUNNY     84  54  34 W3        29.85S
LIBERAL        SUNNY     88  48  25 N5G17     29.93F
$$

KSZ066>073-081>083-090>101-292200-
SOUTHEAST KANSAS

CITY           SKY/WX    TMP DP  RH WIND       PRES   REMARKS
CHANUTE        MOSUNNY   87  63  44 SW12G22   29.84F
COFFEYVILLE    SUNNY     88  62  41 W14       29.85F
HUTCHINSON     PTSUNNY   84  65  52 S18       29.84F
NEWTON         MOSUNNY   84  63  48 SW13      29.87F
PARSONS        MOSUNNY   89  64  43 SW12      29.85F
WICHITA INTL   PTSUNNY   87  64  46 SW14      29.83F
WICHITA JABRA  PTSUNNY   83  65  54 S14       29.84F
WINFIELD       MOSUNNY   85  68  56 S10       29.86F
$$

KSZ007>012-019>026-033>040-048>060-102>105-292200-
NORTHEAST KANSAS

CITY           SKY/WX    TMP DP  RH WIND       PRES   REMARKS
CONCORDIA      CLOUDY    81  68  64 SW12      29.82F
EMPORIA        MOSUNNY   88  62  41 SW16G23   29.81F
LAWRENCE       MOSUNNY   91  65  41 S9        29.79F
MANHATTAN      MOSUNNY   88  65  46 W7        29.79F
OLATHE IND     MOSUNNY   83  66  56 S14       29.83F
OLATHE EXE     MOSUNNY   80  67  64 SW10      29.82F
SALINA         MOSUNNY   89  60  37 SW13G23   29.81F
TOPEKA BILLARD SUNNY     87  66  49 S14G20    29.79F
TOPEKA FORBES  MOSUNNY   87  63  44 S14G21    29.79F
$$



USA.gov is the U.S. government's official web portal to all federal, state and local government web resources and services.